Showing default

ICEYE-X53, 64584

Orbit data source: Space-Track

ICEYE-X53, 64584 is a payload satellite owned by ICEYE (FI) in SSO that was launched on Mon, 23 Jun 2025 UTC via an FALCON 9 launch vehicle from the Air Force Western Test Range (AFWTR). Payload-class satellites include a variety of spacecraft equipped with specific instruments for various scientific and technological missions. These include communications satellites like Starlink; space stations such as the ISS; scientific satellites like the Hubble; Earth observation satellites from companies like Planet Labs, Umbra, and HawkEye 360; GPS; miniature CubeSats for education and research; and military/defense satellites.

Loading next visibility...
Identifier
64584, 2025-135BJ
Orbit
SSO
Country
Flag of FIFI / FIN
Related business
Manufacturer
ICEYE
Mission
Operational Commercial Radar Imaging
Bus & Motor
ICEYE, Unknown motor
Mass
80 kg wet, 80 kg dry
Launch date (UTC)
2025-06-23 (11 months ago)
Launch vehicle
FALCON 9
Launch site
Air Force Western Test Range (AFWTR)
Object type
Payload
Rocket body
Debris
Shape & HBR
Box + 1 Pan, 2.4 m
Radar Cross Section
0.776 m², Large (>1 m²)

Expand to show TLE details & history
Last TLE update: 6 hours ago

TLE from 6 hours ago
0 ICEYE-X53
1 64584U 25135BJ  26132.15657546  .00001892  00000-0  15354-3 0  9997
2 64584  97.7401 249.0896 0002030 133.4693 226.6700 15.00850132 48672
Epoch: 2026-05-12T03:45Z
TLE epoch observation values (Epoch: 2026-05-12T03:45:28.119Z)
Latitude
-0.00002°
Longitude
-37.21255°
Altitude
568.296 km
Speed
7.576 km/s
True Right ascension
16h 36m 21s
True Declination
0° 00' 00"
Sunlit
Object was in full shadow at epoch
Visualization orbit readout
Latitude
Unknown
Longitude
Unknown
Altitude
Unknown
Speed
Unknown
Apparent Right ascension
Unknown
Apparent Declination
Unknown
Sunlit
N/A
Visualization observer readout
Local Sidereal Time
18:30:46
Azimuth
Unknown
Elevation
Unknown
Doppler factor
Unknown
Orbital elements
Apogee altitude
562.688 km
Perigee altitude
559.871 km
Semi-major axis
6,939.416 km
Eccentricity
0.0002
Inclination
97.7401°
RAAN
249.0896°
Arg. of periapsis
133.4693°
True anomaly
226.65308°
Mean anomaly
226.67°
Eccentric anomaly
226.66154°
Mean motion
3.75456 °/min
Orbital period
95.88 mins
BSTAR
0.00015354
Loading maneuver chart data...
Computing Atmospheric mass density...
Loading historical data...
Loading historical data...
Loading historical data...
Loading historical data...
Loading historical data...
Loading historical data...
Loading historical data...

Documentation

Showing up to 5 results
|